21:08
Airports
History
Links
Donate
Help keep this website running!
PayPal
Bitcoin
This page is community maintained. The information is intended for PC simulator navigation or reference.
Always use approved charts for navigation.
CZFM
FORT MCPHERSON
FORT MCPHERSON (CZFM)
Fort McPherson, Northwest Territories, Canada
4
Lat/Lng:67° 24' 28.01" N / 134° 51' 36.99" W
67.40778 / -134.860275
Elevation:116'ft / 35mMSL
ID / ICAO:CZFM
Runways:1
Longest:(11-29) 1,046.1m / 3,432ft Gravel
Distance To
Airport ID:
Airport Radio Frequencies
MANDATORY FREQ: 122.1
Nearby VORs <50NM
Nearby NDBs
METARUpdated 08-20-17 19:00 GMT
Altimeter: 29.93
Visibility: 20.0 statute miles
Wind: 0 knots (000°)
Temp: 12°c 54°f
Humidity: 71.4%

METAR: CZFM 201900Z 00000KT 20SM BKN037 OVC060 12/07 A2993 RMK SC7SC1 12.0/7.9/0.0 LAST OBS/NEXT 211300Z SLP140

(Powered by phpweather)
Runway 11 / 29
Dimensions:1046.1 x 30.5m 3432' x 100'ft
Surface:Gravel
Edge Lights:Low intensity
Runway 11 [A]Runway 29 [B]
Heading:140°TH 320°TH
Lat:
Lng:
67° 24' 41.01"N
134° 52' 5.02"W
67° 24' 15"N
134° 51' 8.96"W
User Notes and Comments
Google Map
Nearby Airports
(C) Midway 16.5 NM
CBA4 SW 225°
4 Aklavik 56.5 NM
CYKD N 356°
(U) INUVIK MIKE ZUBKO 71.5 NM
CYEV (WX) NNE 30°
4 Eagle Plains 78.6 NM
AJ2 SW 216°
4 Old Crow 132.2 NM
CYOC (WX) W 274°
4 TUKTOYAKTUK 147.5 NM
CYUB (WX) NNE 18°
4 Oglivie River 149.5 NM
CFS4 SW 216°
VFR Chart
Flight Planning at SkyVector.com